Date,TemperatureHighF,TemperatureAvgF,TemperatureLowF,DewpointHighF,DewpointAvgF,DewpointLowF,HumidityHigh,HumidityAvg,HumidityLow,PressureMaxIn,PressureMinIn,WindSpeedMaxMPH,WindSpeedAvgMPH,GustSpeedMaxMPH,PrecipitationSumIn
2013-6-1,100,84,72,46,39,30,33,22,11,30.19,30.04,9,2,10,0.00
2013-6-2,99,83,72,40,35,30,27,19,11,30.07,29.96,12,2,12,0.00
2013-6-3,82,74,70,48,42,32,36,32,22,30.01,29.90,6,1,7,0.33
2013-6-4,82,72,58,43,30,16,36,23,13,30.22,30.01,11,2,11,0.00
2013-6-5,87,72,57,42,28,20,36,22,13,30.25,30.19,7,1,9,0.00
2013-6-6,84,73,66,40,35,20,33,26,19,30.19,29.96,9,2,10,0.00
2013-6-7,84,72,69,73,49,40,77,45,32,29.99,29.57,10,2,12,4.40
2013-6-8,82,72,66,60,48,36,67,46,20,30.16,29.78,7,1,10,0.37
2013-6-9,90,76,66,48,41,34,42,30,17,30.28,30.16,6,1,11,0.00
2013-6-10,73,73,73,46,46,46,38,38,38,30.19,30.16,4,0,4,0.00
2013-6-11,90,82,71,49,39,34,33,22,15,29.96,29.87,7,1,11,0.00
2013-6-12,98,83,67,46,40,32,35,23,12,29.99,29.87,6,1,8,0.00
2013-6-13,100,83,70,50,44,32,34,27,13,29.93,29.60,8,2,9,0.17
2013-6-14,78,70,64,40,33,24,35,26,15,30.04,29.69,13,3,13,0.00
2013-6-15,90,76,61,40,33,28,35,23,12,30.19,30.01,6,1,6,0.00
2013-6-16,95,81,68,40,37,34,33,22,14,30.13,29.99,10,2,10,0.00
2013-6-17,89,77,70,47,41,35,34,28,18,30.07,29.99,6,1,7,0.08
2013-6-18,83,74,69,48,43,39,37,33,29,30.04,29.84,12,2,17,0.58
2013-6-19,80,71,66,42,38,35,35,31,21,30.22,29.90,9,2,12,0.00
2013-6-20,86,73,60,40,30,19,36,23,13,30.37,30.22,7,2,9,0.00
2013-6-21,86,74,60,42,35,32,35,26,16,30.37,30.31,8,2,9,0.00
2013-6-22,92,77,63,45,35,30,36,23,12,30.34,30.25,9,2,10,0.00
2013-6-23,93,81,73,49,42,38,33,26,17,30.28,30.19,8,2,9,0.00
2013-6-24,99,85,74,49,42,36,34,24,13,30.22,30.13,6,1,7,0.00
2013-6-25,99,86,74,48,43,36,34,24,13,30.16,30.01,7,1,7,0.00
2013-6-26,102,86,72,47,42,34,33,23,12,30.07,29.90,7,1,8,0.00
2013-6-27,93,81,71,46,41,35,35,25,16,29.96,29.75,10,2,11,0.29
2013-6-28,99,84,73,50,43,35,36,25,14,29.78,29.60,10,2,11,0.00
2013-6-29,93,80,71,48,42,35,36,27,17,29.84,29.66,9,2,10,0.25
2013-6-30,91,81,76,50,44,40,33,28,19,29.96,29.84,9,3,11,0.00